Вернуться в каталог

STARLINK-34868

АктивенСвязьVLEO
NORAD 65648·PAYLOAD·🇺🇸 United States

Запущен Sep 18, 2025 с Cape Canaveral Space Force Station

Loading…

Ближайшие Пролёты (ближайшие 24 часа)

TLE

СвежийSource: CelesTrak SupGP

Эпоха: Sep 14, 2026, 14:20 UTC

1 65648C 25210AC  26257.59770833  .00066863  00000+0  19751-2 0  2573
2 65648  53.1574 145.4474 0001304  96.2293 224.2809 15.34362708    11

Отслеживайте STARLINK-34868 в реальном времени с AllMySat

Download on the App Store